RH
23 23 25 27 29 32 37 35 32 32 52 60 64 55 69 97 96 100 99 100 84 100 100 98 100 100 100 100 100 99 100 86 72 93 88 100 65 59 44 47 58 92 94
26 28 29 30 31 30 34 34 32 36 32 54 56 45 61 79 95 100 95 100 100 86 96 100 100 100 100 100 100 100 98 100 96 96 67 100 100 89 55 51 40 52 77
42 41 48 56 50 41 38 40 40 34 30 35 41 52 61 52 89 86 89 100 99 91 100 100 100 100 100 96 100 100 100 99 92 100 100 98 100 100 96 61 48 38 52
56 61 60 53 55 57 62 50 45 43 38 26 28 31 41 53 60 66 99 71 94 100 100 100 100 100 98 100 95 100 97 100 100 86 100 95 100 100 100 96 69 41 40
55 52 55 55 60 65 70 76 67 58 43 34 30 27 27 34 48 54 58 71 66 100 100 100 100 100 100 100 100 100 100 100 100 100 94 100 84 86 100 100 85 63 43
67 61 60 63 67 70 72 67 74 69 62 49 34 27 28 27 29 45 48 56 41 50 98 95 98 100 94 100 100 100 100 100 100 95 100 95 80 90 54 100 100 68 45
82 84 77 85 81 94 78 84 74 82 67 55 49 26 20 25 27 28 40 50 40 30 71 85 82 94 100 100 100 99 100 100 100 100 100 100 62 85 83 58 61 84 68
80 78 81 80 88 78 73 63 57 53 49 40 33 25 20 17 22 27 29 32 44 36 30 70 76 83 98 100 100 100 100 100 100 100 100 100 100 83 84 90 58 42 72
73 69 75 71 71 65 56 57 53 46 35 26 17 16 15 18 17 20 26 26 29 38 30 35 67 71 73 97 100 100 100 100 100 100 100 100 100 100 85 69 88 51 32
74 73 71 68 53 51 50 51 44 32 23 18 15 12 12 14 15 15 18 24 24 23 24 33 40 64 72 82 85 85 100 100 100 100 100 100 100 100 100 97 77 91 62
80 68 58 49 48 46 43 48 34 24 17 15 13 11 10 11 12 13 14 15 20 20 18 21 32 36 59 64 74 87 93 96 100 100 100 100 100 100 100 100 91 62 97
60 49 41 41 41 37 45 45 26 16 16 13 10 9 8 8 8 11 14 14 14 18 17 17 18 24 33 50 60 72 77 95 85 100 100 100 100 100 100 97 100 86 60
37 35 33 35 33 46 46 36 19 17 11 10 9 10 9 8 8 8 10 14 13 14 15 17 16 15 19 29 39 51 69 81 100 87 100 100 100 100 100 100 100 100 86
35 34 34 37 51 49 39 21 16 12 8 10 10 10 8 8 9 9 10 13 13 14 14 14 14 16 17 18 23 28 37 58 73 88 74 100 100 100 97 100 100 100 100
36 46 74 64 59 44 29 16 10 8 8 9 9 8 7 7 9 12 13 13 14 14 14 14 12 12 13 15 15 18 23 34 50 83 77 91 100 100 71 96 100 92 92
68 71 65 50 51 33 16 11 8 8 8 8 7 7 8 11 15 17 17 14 13 14 14 13 12 13 14 15 16 17 16 19 26 58 80 73 99 100 100 92 100 100 100
71 44 38 37 29 15 11 9 8 8 8 8 8 10 13 16 21 24 22 18 15 14 15 15 14 13 13 14 15 18 19 18 19 24 45 54 77 100 90 80 100 100 100
70 34 29 22 16 12 11 9 8 9 10 11 12 12 14 21 27 24 24 22 19 18 18 16 16 17 16 14 14 15 17 17 17 17 29 36 61 74 100 96 86 84 100
54 26 24 17 13 10 10 10 10 10 10 10 11 16 19 24 27 29 35 31 27 27 26 23 19 20 22 20 16 15 14 14 14 14 15 24 37 42 62 87 91 84 100
28 24 17 15 11 10 11 11 10 11 12 12 15 20 26 33 44 50 56 57 50 51 61 50 43 43 43 33 24 20 16 14 12 12 12 12 15 27 33 41 51 80 100
25 18 15 12 10 11 12 14 14 15 17 17 19 26 34 49 64 72 82 82 83 86 89 94 92 84 79 74 48 33 25 18 14 13 12 10 11 11 20 29 22 44 45
20 16 14 12 11 13 17 20 18 18 20 23 29 31 40 54 73 100 82 79 91 91 93 95 92 94 91 84 74 59 45 32 20 15 14 11 10 9 11 12 20 23 18
18 16 14 12 12 17 20 21 21 19 19 21 32 38 47 57 70 84 91 99 91 100 98 94 99 97 88 81 76 77 64 48 33 30 23 16 13 11 10 10 13 13 14
19 16 14 13 17 20 21 22 27 29 26 22 24 36 53 63 77 89 99 100 88 75 75 86 95 97 97 96 92 87 87 77 72 58 39 35 26 18 14 12 11 13 14
19 16 14 18 22 22 23 33 43 46 50 44 24 29 47 68 75 81 92 94 92 81 97 81 87 84 96 98 89 94 98 97 91 78 62 43 36 40 32 20 18 17 39
20 15 17 23 26 33 43 45 48 56 61 65 65 37 43 57 76 80 90 93 93 89 96 95 98 97 100 100 97 86 89 95 96 94 82 69 49 40 42 41 22 22 17
Wind_Speed
42 40 39 39 41 45 46 47 51 56 55 51 52 48 45 44 43 46 46 42 40 35 34 29 25 27 28 28 27 26 25 30 30 31 31 29 30 27 23 19 15 22 21
52 51 51 51 52 54 48 45 49 50 56 59 60 59 60 60 50 47 46 43 38 38 39 31 26 33 34 32 33 24 32 38 36 33 31 33 32 30 25 23 20 12 20
55 55 55 56 58 60 61 61 62 54 57 56 65 71 73 71 67 55 54 52 51 46 47 40 45 44 42 35 40 38 35 34 34 34 32 29 38 35 30 28 25 19 15
58 58 59 61 64 66 67 70 73 69 66 61 66 70 79 82 75 67 62 61 60 64 58 51 52 58 55 47 40 37 38 42 39 33 31 33 36 42 35 31 27 23 21
65 65 66 66 67 69 72 75 80 81 79 71 65 68 74 82 83 78 71 72 72 74 66 61 62 58 59 52 50 40 52 54 52 48 41 36 37 38 39 38 35 30 23
69 70 71 73 74 77 79 83 86 88 85 83 78 72 72 76 84 88 81 82 83 83 77 73 72 68 64 59 53 55 50 61 56 55 52 46 40 44 40 41 37 35 29
74 74 77 79 82 82 86 90 93 92 93 93 95 87 81 76 77 86 91 88 90 87 88 88 80 78 77 70 70 71 61 61 56 53 56 51 48 49 47 40 39 40 39
78 79 83 85 87 90 93 96 95 99 103 104 101 98 95 88 82 84 92 97 97 95 96 96 91 89 88 79 78 71 71 69 65 56 62 57 48 53 54 54 46 45 42
82 85 87 91 94 97 101 101 105 109 109 108 103 96 89 90 89 89 91 97 102 104 104 102 101 94 95 88 87 83 78 78 75 76 58 60 55 59 59 57 56 51 53
89 91 94 97 102 104 107 108 110 109 100 98 96 87 82 82 88 91 97 99 102 109 109 110 106 103 101 96 94 91 82 87 82 76 63 52 55 67 68 62 64 57 58
93 96 101 105 106 109 112 111 108 104 92 89 84 80 76 76 81 88 96 106 106 108 112 114 118 113 103 105 103 98 92 90 90 85 78 67 59 60 62 67 66 64 56
102 105 108 112 112 112 110 108 105 94 85 79 76 73 72 72 78 85 93 102 109 108 112 116 121 119 110 109 109 107 105 98 92 91 88 82 76 70 66 71 73 66 67
105 107 108 111 113 110 111 104 99 88 78 72 69 68 67 69 72 77 87 96 104 107 109 115 118 121 122 115 113 113 111 106 99 100 97 92 88 83 78 68 75 76 71
110 112 115 119 117 118 107 101 88 81 70 65 64 66 66 64 64 63 68 79 94 104 107 110 115 114 118 116 116 115 117 109 109 105 101 97 99 92 85 84 79 76 74
115 118 127 125 117 111 103 89 82 73 64 60 60 63 62 57 52 55 63 68 78 91 104 107 108 109 117 119 120 125 127 118 123 117 116 107 104 102 94 89 82 80 85
119 127 128 116 112 104 89 79 74 66 58 56 56 57 55 51 50 53 57 63 69 77 87 96 102 104 106 108 112 119 126 130 125 121 118 117 108 105 101 95 89 81 80
129 123 110 104 97 87 77 70 65 58 54 51 50 50 50 47 47 49 52 56 60 67 73 81 89 96 101 101 103 110 119 124 130 131 125 123 120 115 108 100 96 93 88
131 118 103 92 86 77 67 62 57 51 46 44 43 44 45 45 46 47 46 49 52 56 62 69 75 81 87 94 101 107 112 120 127 130 132 128 122 124 119 113 109 102 95
125 102 93 86 76 66 60 54 50 44 41 40 38 39 39 43 45 43 39 39 43 47 50 56 64 68 72 81 92 100 107 111 116 123 129 133 124 126 127 116 114 107 104
108 93 86 75 66 58 51 48 44 40 38 35 35 35 38 40 39 37 35 32 36 40 43 48 53 59 62 69 79 87 92 100 107 110 115 123 128 128 132 129 122 116 107
96 87 75 67 57 50 45 44 40 35 34 33 34 34 36 38 38 38 33 35 38 40 43 46 50 55 60 63 70 74 79 82 89 96 106 113 114 117 129 136 131 128 121
87 75 67 59 50 42 40 37 36 33 32 31 31 32 36 39 41 43 42 41 43 45 49 49 51 54 57 61 63 67 70 71 75 78 85 95 103 111 113 122 127 127 126
76 67 59 53 43 39 36 34 35 34 31 31 32 33 37 41 43 45 44 47 45 48 51 53 53 54 53 55 57 58 60 65 69 72 73 77 84 93 100 109 118 116 115
67 61 53 45 40 37 35 34 34 34 34 33 34 35 38 41 45 47 49 51 50 53 54 53 52 52 53 55 53 55 56 60 61 64 67 70 73 80 88 98 107 115 117
60 55 48 40 39 38 37 34 32 32 33 35 37 37 39 43 45 47 50 54 56 49 52 56 56 58 59 59 60 56 55 57 60 64 67 69 71 73 81 91 101 110 114
56 49 42 39 39 38 36 34 31 30 31 32 36 39 42 44 47 49 52 54 57 55 56 59 59 62 65 65 69 68 65 61 67 69 69 70 75 76 80 87 97 106 118
Wind_Direction
302 306 309 309 305 299 294 287 287 278 273 263 251 250 253 262 252 251 243 246 241 250 256 263 262 265 267 271 272 287 292 300 297 301 307 308 300 305 293 293 285 255 253
301 304 305 306 310 310 310 306 289 283 277 265 257 253 254 263 252 245 237 239 231 233 236 245 258 257 250 252 251 254 287 295 287 286 289 299 298 301 290 291 296 289 258
300 303 305 305 307 308 308 307 305 306 279 268 263 257 256 255 258 246 238 235 235 223 232 236 252 251 241 238 245 248 267 287 279 282 276 282 293 289 284 282 282 286 289
298 299 300 301 304 304 304 305 305 303 302 282 264 261 257 253 253 245 235 230 228 233 237 233 244 250 250 251 242 239 244 249 267 258 265 263 277 278 278 274 280 273 275
298 300 300 301 301 303 302 300 300 300 297 296 279 264 261 255 253 245 237 233 232 233 231 231 239 242 243 245 234 223 240 232 245 246 250 251 252 260 268 270 269 270 268
299 299 301 302 303 304 302 300 298 295 294 291 289 275 263 259 254 248 243 234 237 235 231 228 235 238 240 234 230 235 227 230 235 238 246 249 245 253 260 260 262 263 257
298 299 300 301 302 301 301 300 298 295 292 290 288 285 275 264 256 252 245 236 236 234 231 230 232 239 237 234 228 229 240 230 230 234 235 244 248 248 254 253 259 254 256
298 300 300 301 301 300 299 296 293 292 289 284 281 279 275 269 259 252 246 242 234 233 232 232 231 235 237 231 230 231 236 236 224 232 237 246 239 243 247 249 248 251 255
299 300 300 301 300 299 299 296 294 292 288 287 284 279 271 265 258 249 245 242 237 232 233 232 235 232 233 235 229 232 234 234 229 234 242 239 242 243 241 246 247 244 255
299 300 301 300 300 299 298 298 294 291 290 286 283 277 270 260 254 250 244 240 239 236 233 231 231 234 234 234 228 228 231 233 231 235 232 233 241 245 242 241 243 243 245
299 300 300 299 299 300 301 301 296 295 292 286 281 274 266 257 250 245 245 242 239 237 234 232 232 234 230 227 231 232 233 233 233 233 231 227 229 233 240 240 242 244 241
297 298 298 299 302 302 303 302 298 296 291 284 278 272 265 255 247 243 240 240 240 238 235 234 232 233 228 227 230 232 233 231 232 230 234 234 229 230 240 244 241 239 244
296 296 300 305 304 308 306 302 299 294 288 283 277 271 264 258 250 244 239 240 240 239 237 236 235 234 233 231 231 236 237 234 231 229 234 238 231 233 233 240 242 242 240
301 301 303 307 310 310 306 300 295 291 288 282 275 269 265 259 255 250 245 240 240 241 239 237 236 236 228 232 230 233 237 236 236 230 231 237 234 231 232 234 241 242 238
306 308 310 309 309 309 303 298 293 291 288 279 271 267 266 263 257 253 247 241 238 240 240 239 237 234 237 239 238 236 237 235 237 235 233 232 237 234 232 237 240 240 243
308 307 307 308 308 306 300 296 293 290 285 277 270 266 264 260 252 250 247 242 238 238 240 241 241 238 236 236 237 238 239 238 234 235 233 232 233 236 234 231 236 238 243
308 313 310 308 305 302 299 295 293 289 282 275 267 263 260 256 254 251 248 244 240 237 238 239 240 240 239 238 237 237 239 239 237 234 232 234 233 239 237 232 236 238 243
312 310 306 306 306 302 299 295 291 286 278 269 264 258 254 252 251 251 248 243 241 240 236 238 239 239 240 240 239 238 238 239 239 237 234 233 235 237 238 240 237 239 240
309 306 307 306 304 301 297 292 287 283 275 268 259 254 249 247 250 250 249 243 239 238 237 236 237 238 238 238 240 241 240 241 241 241 238 237 235 235 241 242 237 239 240
305 306 306 304 301 299 293 289 286 282 275 267 255 248 245 245 244 244 243 237 233 229 228 232 235 238 239 239 240 243 243 244 245 244 243 240 237 235 238 242 242 242 240
304 303 304 302 299 294 291 287 285 280 272 263 251 243 241 238 238 238 235 229 223 222 224 227 230 236 240 243 244 245 247 245 245 246 247 245 241 238 235 237 242 241 241
301 304 302 298 295 291 288 284 282 277 269 262 254 245 240 236 233 235 236 229 224 224 225 228 232 236 241 246 249 250 251 250 248 246 244 243 244 242 240 237 235 240 242
302 302 299 295 292 290 287 284 279 274 266 262 254 248 241 237 234 235 237 235 233 232 234 233 234 237 242 246 249 249 250 250 250 249 244 242 239 240 239 237 238 239 239
301 300 295 292 291 289 286 282 276 272 266 258 253 247 241 238 237 236 239 240 242 241 238 240 241 243 244 243 244 248 248 250 249 248 245 243 239 236 233 234 235 237 232
298 295 290 291 290 289 286 280 271 265 262 257 252 248 245 242 242 240 240 242 243 246 246 245 245 248 248 250 246 247 247 246 249 250 249 245 240 235 233 229 228 228 229
293 289 289 289 288 286 283 278 271 263 257 256 253 249 246 244 245 245 245 245 245 251 251 250 253 253 252 251 251 250 246 245 246 248 248 248 244 240 234 232 228 228 229